Location: Cactus School
(34.5700°N, 118.0931°W)
Time: 21:00:11
(UTC-07:00)

Vanguard 2 - Pass Details

Date: 02 May 2024
Orbit: 553 x 2914 km, 32.9° (Epoch: 18 May)

Event Time Altitude Azimuth Distance (km) Brightness Sun altitude
Rises 22:47:48 0° 243° (WSW) 3,742 11.1 -31.9°
Reaches altitude 10° 22:50:01 10° 240° (WSW) 3,019 10.6 -32.2°
Enters shadow 22:54:45 45° 220° (SW) 1,847 9.2 -32.7°
Exits shadow 23:06:10 23° 86° (E) 3,670 10.7 -34.0°
Drops below altitude 10° 23:10:32 10° 82° (E) 4,935 11.4 -34.4°
Sets 23:15:11 0° 80° (E) 6,247 12.0 -34.9°
